sat.trackr.live / text

‹ back to catalog

STARLINK-1046

NORAD 44751 · 2019-074AQ

PAYLOAD ACTIVE UNKNOWN

§ Identity

Operator
Country
US
Launch date
2019-11-11
Launch site
AFETR
Launch vehicle
Mass (kg)
RCS (m²)

Purposes: comms

External: N2YO · Heavens-Above · Gunter

§ Orbital elements

Epoch: 2026-09-19T19:10:57.372096Z

Period
91.65 min
Inclination
53.0431°
Eccentricity
0.0003637
Mean motion
15.71256778 rev/d
Perigee alt
352.9 km
Apogee alt
357.8 km
Semi-major
6,733.4 km
B*
2.9894e-4
RAAN
349.6642°
Arg perigee
1.9123°
Mean anomaly
358.1907°
Rev number
37,865

§ Raw data

STARLINK-10461 44751U 19074AQ  26262.79927514  .00038221  00000+0  29894-3 0  99942 44751  53.0431 349.6642 0003637   1.9123 358.1907 15.71256778378659

JSON: /api/v1/satellites/44751 · /tle

For live sub-satellite position, see the globe view (requires WebGL).

§ Visibility from observer

Set your observer location to see the next 7 days of passes ≥ 10°. The values pass through the URL so the page stays shareable.

No JS? Fill the form by hand. The geolocation button needs JavaScript.